Location: Bad Salzschlirf
(50.3750°N, 9.3000°E)
Time: 03:49:54
(UTC+02:00)

ISS - Pass Details

Date: 06 July 2025
Orbit: 413 x 417 km, 51.6° (Epoch: 12 July)

Event Time Altitude Azimuth Distance (km) Brightness Sun altitude
Rises 22:48:40 0° 202° (SSW) 2,339 -0.3 -9.0°
Reaches altitude 10° 22:51:18 10° 179° (S) 1,482 -1.5 -9.3°
Maximum altitude 22:53:25 16° 140° (SE) 1,177 -2.2 -9.5°
Drops below altitude 10° 22:55:33 10° 100° (E) 1,490 -1.4 -9.7°
Sets 22:58:12 0° 78° (ENE) 2,358 -0.2 -9.9°
